IBE2KL LEPA-EDDM

Flight info

Callsign IBE2KL
Flight time 1h 58m
Altitude 32000
Route MEROS DCT LAPIT DCT CHELY DCT LUMAS/N0491F340 DCT UNANA/N0501F300 DCT STP/N0480F400 DCT RAPED DCT PIGOS DCT EKSID DCT NOSTA DCT NOPMU DCT VAKON DCT TAGIP DCT GUNGO DCT TISAX DCT IVKAL T102 NINUR T101 BETOS BETOS1A
Aircraft A359/H-SDE2E3GHIJ3J4J5LM1ORWXY/LB1D1

Departure

Time 2026-05-01 10:07
Airport Palma de Mallorca Airport (LEPA)

Arrival

Time 2026-05-01 12:05
Airport Munich Airport (EDDM)
Time Latitude Longitude Altitude Speed Heading
2026-05-01 09:46 39.54517 2.73282 40 ft 0 kts 348°
2026-05-01 09:57 39.54504 2.73292 38 ft 2 kts 302°
2026-05-01 09:57 39.54499 2.73312 37 ft 2 kts 270°
2026-05-01 09:57 39.54501 2.73334 37 ft 2 kts 254°
2026-05-01 09:57 39.54505 2.73349 36 ft 1 kts 239°
2026-05-01 09:58 39.54505 2.73350 36 ft 0 kts 238°
2026-05-01 10:02 39.54482 2.73300 39 ft 16 kts 236°
2026-05-01 10:02 39.54409 2.73224 41 ft 10 kts 192°
2026-05-01 10:03 39.54346 2.73178 41 ft 11 kts 226°
2026-05-01 10:03 39.54296 2.73088 42 ft 14 kts 235°
2026-05-01 10:03 39.54226 2.73010 43 ft 13 kts 196°
2026-05-01 10:03 39.54188 2.73018 43 ft 2 kts 147°
2026-05-01 10:04 39.54185 2.73021 43 ft 0 kts 144°
2026-05-01 10:05 39.54161 2.73079 43 ft 17 kts 103°
2026-05-01 10:05 39.54159 2.73233 42 ft 18 kts 72°
2026-05-01 10:06 39.54198 2.73328 41 ft 4 kts 59°
2026-05-01 10:06 39.54258 2.73455 40 ft 48 kts 58°
2026-05-01 10:06 39.54572 2.74111 38 ft 120 kts 59°
2026-05-01 10:06 39.55116 2.75246 173 ft 169 kts 59°
2026-05-01 10:07 39.55790 2.76604 726 ft 185 kts 57°
2026-05-01 10:07 39.56470 2.77984 1702 ft 180 kts 59°
2026-05-01 10:07 39.57143 2.79435 2319 ft 196 kts 60°
2026-05-01 10:07 39.57868 2.80993 3043 ft 205 kts 60°
2026-05-01 10:08 39.59378 2.84202 4068 ft 212 kts 60°
2026-05-01 10:08 39.60151 2.85836 4313 ft 214 kts 60°
2026-05-01 10:08 39.60937 2.87496 4882 ft 217 kts 60°
2026-05-01 10:09 39.61729 2.89167 5744 ft 217 kts 60°
2026-05-01 10:09 39.62525 2.90847 6614 ft 222 kts 60°
2026-05-01 10:09 39.63335 2.92690 7027 ft 249 kts 63°
2026-05-01 10:09 39.64203 2.94778 7557 ft 268 kts 63°
2026-05-01 10:10 39.65113 2.96950 8336 ft 279 kts 63°
2026-05-01 10:10 39.66060 2.99193 9156 ft 288 kts 62°
2026-05-01 10:10 39.68059 3.03907 10671 ft 312 kts 62°
2026-05-01 10:11 39.69146 3.06465 11073 ft 336 kts 62°
2026-05-01 10:11 39.70311 3.09211 11450 ft 358 kts 61°
2026-05-01 10:11 39.71534 3.12091 12065 ft 369 kts 61°
2026-05-01 10:11 39.72784 3.15039 12863 ft 375 kts 61°
2026-05-01 10:12 39.74045 3.18015 13693 ft 379 kts 60°
2026-05-01 10:12 39.74891 3.20014 14221 ft 382 kts 60°
2026-05-01 10:12 39.78091 3.27049 15977 ft 391 kts 51°
2026-05-01 10:13 39.79234 3.28855 16478 ft 393 kts 48°
2026-05-01 10:13 39.81043 3.31558 17239 ft 397 kts 47°
2026-05-01 10:13 39.82873 3.34275 18002 ft 401 kts 47°
2026-05-01 10:14 39.86581 3.39816 19340 ft 411 kts 48°
2026-05-01 10:14 39.88462 3.42640 19975 ft 415 kts 48°
2026-05-01 10:14 39.90366 3.45503 20645 ft 420 kts 48°
2026-05-01 10:14 39.92284 3.48391 21313 ft 424 kts 48°
2026-05-01 10:15 39.94225 3.51317 21995 ft 429 kts 48°
2026-05-01 10:15 39.96186 3.54277 22673 ft 433 kts 48°
2026-05-01 10:15 39.98166 3.57268 23348 ft 438 kts 48°
2026-05-01 10:15 40.00165 3.60290 23967 ft 443 kts 48°
2026-05-01 10:16 40.02185 3.63348 24504 ft 447 kts 48°
2026-05-01 10:16 40.04221 3.66433 25072 ft 451 kts 48°
2026-05-01 10:16 40.08348 3.72697 26164 ft 459 kts 48°
2026-05-01 10:17 40.10436 3.75871 26727 ft 463 kts 48°
2026-05-01 10:17 40.14667 3.82313 27799 ft 471 kts 48°
2026-05-01 10:17 40.16809 3.85579 28296 ft 476 kts 48°
2026-05-01 10:18 40.21155 3.92215 29322 ft 484 kts 48°
2026-05-01 10:18 40.23349 3.95572 29818 ft 488 kts 47°
2026-05-01 10:18 40.25562 3.98960 30278 ft 492 kts 47°
2026-05-01 10:19 40.27794 4.02382 30660 ft 496 kts 47°
2026-05-01 10:19 40.30042 4.05832 31078 ft 499 kts 47°
2026-05-01 10:19 40.32300 4.09302 31482 ft 502 kts 48°
2026-05-01 10:20 40.36854 4.16312 32139 ft 509 kts 48°
2026-05-01 10:20 40.39147 4.19848 32213 ft 507 kts 48°
2026-05-01 10:20 40.43705 4.26889 32218 ft 506 kts 47°
2026-05-01 10:21 40.51578 4.35858 32217 ft 498 kts 24°
2026-05-01 10:22 40.61419 4.39577 32216 ft 490 kts
2026-05-01 10:23 40.71497 4.41863 32217 ft 490 kts
2026-05-01 10:23 40.81578 4.44212 32219 ft 490 kts
2026-05-01 10:24 40.94995 4.47453 32224 ft 490 kts
2026-05-01 10:25 41.08425 4.50720 32230 ft 490 kts
2026-05-01 10:26 41.15139 4.52350 32232 ft 491 kts
2026-05-01 10:27 41.28568 4.55632 32230 ft 491 kts
2026-05-01 10:28 41.38641 4.58101 32242 ft 491 kts
2026-05-01 10:28 41.48706 4.60575 32249 ft 490 kts
2026-05-01 10:29 41.58772 4.63056 32247 ft 490 kts
2026-05-01 10:30 41.72068 4.67275 32255 ft 499 kts 21°
2026-05-01 10:31 41.77832 4.72533 32257 ft 508 kts 39°
2026-05-01 10:31 41.82948 4.79109 32262 ft 510 kts 41°
2026-05-01 10:32 41.90460 4.89225 32267 ft 510 kts 42°
2026-05-01 10:33 42.00520 5.02650 32269 ft 510 kts 41°
2026-05-01 10:34 42.08073 5.12724 32272 ft 510 kts 41°
2026-05-01 10:34 42.13133 5.19496 32277 ft 509 kts 42°
2026-05-01 10:35 42.20664 5.29609 32277 ft 509 kts 42°
2026-05-01 10:35 42.25677 5.36360 32281 ft 509 kts 42°
2026-05-01 10:36 42.33154 5.46461 32282 ft 509 kts 42°
2026-05-01 10:37 42.38184 5.53276 32286 ft 509 kts 42°
2026-05-01 10:37 42.45674 5.63455 32289 ft 508 kts 42°
2026-05-01 10:38 42.50658 5.70248 32288 ft 508 kts 42°
2026-05-01 10:38 42.55633 5.77045 32292 ft 507 kts 42°
2026-05-01 10:39 42.60594 5.83839 32292 ft 507 kts 42°
2026-05-01 10:39 42.65551 5.90645 32295 ft 506 kts 42°
2026-05-01 10:40 42.70495 5.97448 32295 ft 506 kts 42°
2026-05-01 10:40 42.75433 6.04261 32294 ft 505 kts 42°
2026-05-01 10:41 42.80355 6.11066 32294 ft 504 kts 43°
2026-05-01 10:42 42.87930 6.20932 32289 ft 501 kts 37°
2026-05-01 10:42 42.93238 6.27071 32294 ft 500 kts 37°
2026-05-01 10:43 42.98566 6.33166 32295 ft 499 kts 37°
2026-05-01 10:43 43.03878 6.39260 32300 ft 498 kts 37°
2026-05-01 10:44 43.09181 6.45371 32308 ft 498 kts 37°
2026-05-01 10:44 43.14467 6.51484 32311 ft 497 kts 37°
2026-05-01 10:45 43.19740 6.57610 32316 ft 497 kts 38°
2026-05-01 10:45 43.24360 6.64714 32316 ft 501 kts 50°
2026-05-01 10:46 43.28509 6.72410 32318 ft 502 kts 51°
2026-05-01 10:46 43.32583 6.80205 32329 ft 502 kts 52°
2026-05-01 10:47 43.36651 6.87993 32338 ft 502 kts 52°
2026-05-01 10:47 43.40723 6.95771 32339 ft 501 kts 51°
2026-05-01 10:48 43.44798 7.03555 32347 ft 501 kts 52°
2026-05-01 10:48 43.48862 7.11338 32351 ft 500 kts 52°
2026-05-01 10:49 43.52919 7.19129 32345 ft 500 kts 52°
2026-05-01 10:49 43.56967 7.26924 32349 ft 500 kts 52°
2026-05-01 10:50 43.61005 7.34722 32345 ft 500 kts 52°
2026-05-01 10:50 43.64363 7.41213 32344 ft 499 kts 52°
2026-05-01 10:51 43.68385 7.49019 32290 ft 502 kts 52°
2026-05-01 10:51 43.72509 7.57040 32277 ft 512 kts 52°
2026-05-01 10:52 43.77295 7.66385 32274 ft 512 kts 52°
2026-05-01 10:52 43.80801 7.73063 32276 ft 510 kts 47°
2026-05-01 10:53 43.85861 7.79711 32284 ft 503 kts 36°
2026-05-01 10:53 43.91378 7.85739 32286 ft 501 kts 34°
2026-05-01 10:54 43.96710 7.91866 32288 ft 503 kts 39°
2026-05-01 10:54 44.01830 7.98519 32294 ft 504 kts 40°
2026-05-01 10:55 44.06886 8.05258 32299 ft 503 kts 40°
2026-05-01 10:55 44.11958 8.12053 32302 ft 503 kts 40°
2026-05-01 10:56 44.16964 8.18761 32315 ft 503 kts 40°
2026-05-01 10:56 44.21999 8.25516 32323 ft 502 kts 40°
2026-05-01 10:57 44.27029 8.32279 32339 ft 502 kts 40°
2026-05-01 10:57 44.32057 8.39060 32355 ft 502 kts 40°
2026-05-01 10:58 44.37075 8.45840 32359 ft 501 kts 40°
2026-05-01 10:58 44.42081 8.52617 32363 ft 501 kts 40°
2026-05-01 10:59 44.47089 8.59418 32366 ft 501 kts 40°
2026-05-01 10:59 44.52082 8.66217 32372 ft 501 kts 40°
2026-05-01 11:00 44.57073 8.73029 32386 ft 501 kts 40°
2026-05-01 11:00 44.62090 8.79892 32401 ft 500 kts 40°
2026-05-01 11:01 44.67065 8.86718 32423 ft 500 kts 40°
2026-05-01 11:01 44.72026 8.93539 32439 ft 499 kts 40°
2026-05-01 11:02 44.76981 9.00372 32461 ft 498 kts 40°
2026-05-01 11:02 44.81924 9.07202 32471 ft 497 kts 40°
2026-05-01 11:03 44.86854 9.14035 32477 ft 496 kts 40°
2026-05-01 11:03 44.91765 9.20858 32484 ft 495 kts 41°
2026-05-01 11:04 44.96635 9.27646 32483 ft 495 kts 41°
2026-05-01 11:04 45.01551 9.34511 32488 ft 493 kts 41°
2026-05-01 11:05 45.06425 9.41328 32491 ft 492 kts 41°
2026-05-01 11:05 45.11279 9.48141 32502 ft 491 kts 41°
2026-05-01 11:06 45.16116 9.54950 32510 ft 490 kts 41°
2026-05-01 11:06 45.20900 9.61699 32513 ft 489 kts 42°
2026-05-01 11:07 45.28100 9.71890 32495 ft 487 kts 42°
2026-05-01 11:07 45.32881 9.78677 32487 ft 486 kts 42°
2026-05-01 11:08 45.37653 9.85468 32524 ft 485 kts 42°
2026-05-01 11:09 45.44779 9.95643 32523 ft 483 kts 43°
2026-05-01 11:09 45.49501 10.02419 32521 ft 482 kts 43°
2026-05-01 11:10 45.56413 10.12802 32529 ft 480 kts 44°
2026-05-01 11:10 45.60984 10.19743 32533 ft 479 kts 44°
2026-05-01 11:11 45.65554 10.26654 32537 ft 478 kts 44°
2026-05-01 11:11 45.70145 10.33598 32533 ft 476 kts 44°
2026-05-01 11:12 45.74683 10.40476 32542 ft 475 kts 44°
2026-05-01 11:12 45.79182 10.47313 32537 ft 474 kts 44°
2026-05-01 11:13 45.83695 10.54190 32538 ft 473 kts 45°
2026-05-01 11:13 45.88223 10.61104 32542 ft 472 kts 45°
2026-05-01 11:14 45.92825 10.67703 32535 ft 469 kts 38°
2026-05-01 11:14 45.98309 10.72804 32535 ft 466 kts 28°
2026-05-01 11:15 46.04002 10.77244 32537 ft 465 kts 27°
2026-05-01 11:15 46.09713 10.81588 32534 ft 464 kts 27°
2026-05-01 11:16 46.15416 10.85956 32539 ft 464 kts 27°
2026-05-01 11:16 46.21113 10.90354 32543 ft 464 kts 27°
2026-05-01 11:17 46.26791 10.94759 32548 ft 462 kts 27°
2026-05-01 11:17 46.32449 10.99158 32551 ft 462 kts 28°
2026-05-01 11:18 46.38137 11.03469 32549 ft 461 kts 24°
2026-05-01 11:18 46.44257 11.06097 32541 ft 460 kts
2026-05-01 11:19 46.50662 11.06569 32503 ft 462 kts
2026-05-01 11:19 46.57089 11.06565 32499 ft 462 kts
2026-05-01 11:20 46.63513 11.06478 32498 ft 462 kts 359°
2026-05-01 11:20 46.69915 11.05521 32491 ft 463 kts 355°
2026-05-01 11:21 46.76318 11.04346 32499 ft 463 kts 355°
2026-05-01 11:21 46.82712 11.03134 32491 ft 463 kts 355°
2026-05-01 11:22 46.88988 11.01920 32498 ft 440 kts 355°
2026-05-01 11:22 46.91966 11.01359 32506 ft 423 kts 357°
2026-05-01 11:22 46.94842 11.01148 32528 ft 405 kts
2026-05-01 11:23 46.97595 11.01364 32538 ft 388 kts
2026-05-01 11:23 47.00236 11.01697 32549 ft 373 kts
2026-05-01 11:23 47.02767 11.02060 32550 ft 357 kts
2026-05-01 11:23 47.05189 11.02427 32575 ft 343 kts
2026-05-01 11:24 47.07517 11.02785 32586 ft 330 kts
2026-05-01 11:24 47.09755 11.03132 32594 ft 318 kts
2026-05-01 11:25 47.16284 11.04157 32598 ft 315 kts
2026-05-01 11:25 47.22824 11.05159 32577 ft 314 kts
2026-05-01 11:26 47.28608 11.06039 32462 ft 313 kts
2026-05-01 11:27 47.32934 11.06700 32303 ft 312 kts 10°
2026-05-01 11:27 47.35125 11.07036 32171 ft 313 kts 10°
2026-05-01 11:27 47.37253 11.07369 32045 ft 310 kts 10°
2026-05-01 11:27 47.39423 11.07704 31816 ft 309 kts 10°
2026-05-01 11:28 47.41555 11.08030 31745 ft 307 kts 10°
2026-05-01 11:28 47.45778 11.08676 31619 ft 304 kts 11°
2026-05-01 11:29 47.49952 11.09319 31490 ft 303 kts 11°
2026-05-01 11:29 47.52071 11.09648 31416 ft 302 kts 11°
2026-05-01 11:29 47.56168 11.10690 31268 ft 296 kts 20°
2026-05-01 11:30 47.58046 11.11737 31172 ft 291 kts 28°
2026-05-01 11:30 47.59867 11.13133 31123 ft 291 kts 31°
2026-05-01 11:30 47.61631 11.14598 31017 ft 290 kts 32°
2026-05-01 11:30 47.63369 11.16098 30905 ft 289 kts 32°
2026-05-01 11:31 47.65095 11.17612 30771 ft 288 kts 33°
2026-05-01 11:31 47.66812 11.19123 30681 ft 286 kts 33°
2026-05-01 11:31 47.68522 11.20624 30601 ft 285 kts 33°
2026-05-01 11:31 47.70228 11.22118 30507 ft 284 kts 33°
2026-05-01 11:32 47.71915 11.23590 30386 ft 283 kts 33°
2026-05-01 11:32 47.73660 11.24954 30267 ft 284 kts 27°
2026-05-01 11:32 47.75483 11.26075 30043 ft 284 kts 25°
2026-05-01 11:32 47.77316 11.27140 29699 ft 282 kts 24°
2026-05-01 11:33 47.79143 11.28167 29377 ft 279 kts 24°
2026-05-01 11:33 47.80956 11.29170 29040 ft 277 kts 24°
2026-05-01 11:33 47.82760 11.30163 28577 ft 279 kts 24°
2026-05-01 11:33 47.84616 11.31193 27825 ft 290 kts 23°
2026-05-01 11:34 47.86541 11.32264 27086 ft 301 kts 23°
2026-05-01 11:34 47.88591 11.33144 26350 ft 314 kts 14°
2026-05-01 11:34 47.90791 11.33562 25736 ft 322 kts
2026-05-01 11:34 47.93034 11.33795 25279 ft 324 kts
2026-05-01 11:35 47.95283 11.33999 24886 ft 323 kts
2026-05-01 11:35 47.97522 11.34196 24501 ft 322 kts
2026-05-01 11:35 47.99755 11.34390 24130 ft 321 kts
2026-05-01 11:35 48.01980 11.34584 23747 ft 319 kts
2026-05-01 11:36 48.04172 11.34974 23286 ft 316 kts 15°
2026-05-01 11:36 48.06221 11.36060 22847 ft 312 kts 29°
2026-05-01 11:36 48.07996 11.37893 22404 ft 309 kts 43°
2026-05-01 11:36 48.09410 11.40299 21993 ft 308 kts 52°
2026-05-01 11:37 48.10654 11.42902 21601 ft 307 kts 54°
2026-05-01 11:37 48.11687 11.45695 21216 ft 307 kts 65°
2026-05-01 11:37 48.12262 11.48738 20817 ft 308 kts 78°
2026-05-01 11:37 48.12539 11.51913 20440 ft 308 kts 81°
2026-05-01 11:38 48.12774 11.55084 20070 ft 306 kts 81°
2026-05-01 11:38 48.13012 11.58252 19637 ft 306 kts 81°
2026-05-01 11:38 48.13256 11.61427 19184 ft 307 kts 81°
2026-05-01 11:38 48.13502 11.64597 18832 ft 306 kts 81°
2026-05-01 11:39 48.13747 11.67763 18424 ft 305 kts 81°
2026-05-01 11:39 48.13991 11.70906 18007 ft 304 kts 81°
2026-05-01 11:39 48.14234 11.74048 17582 ft 303 kts 81°
2026-05-01 11:39 48.14473 11.77169 17181 ft 301 kts 81°
2026-05-01 11:40 48.14713 11.80271 16773 ft 300 kts 81°
2026-05-01 11:40 48.14951 11.83368 16385 ft 299 kts 81°
2026-05-01 11:40 48.15186 11.86454 16005 ft 297 kts 81°
2026-05-01 11:40 48.15420 11.89513 15615 ft 296 kts 81°
2026-05-01 11:41 48.15652 11.92564 15230 ft 294 kts 81°
2026-05-01 11:41 48.15881 11.95608 14836 ft 293 kts 81°
2026-05-01 11:41 48.16111 11.98636 14469 ft 292 kts 81°
2026-05-01 11:41 48.16386 12.01631 14088 ft 289 kts 76°
2026-05-01 11:42 48.17064 12.04419 13705 ft 286 kts 59°
2026-05-01 11:42 48.18302 12.06737 13309 ft 284 kts 42°
2026-05-01 11:42 48.19959 12.08319 12889 ft 284 kts 24°
2026-05-01 11:42 48.21875 12.09016 12476 ft 287 kts
2026-05-01 11:43 48.23869 12.08747 12106 ft 291 kts 348°
2026-05-01 11:43 48.25707 12.07461 11689 ft 298 kts 326°
2026-05-01 11:43 48.27050 12.05089 11289 ft 305 kts 300°
2026-05-01 11:44 48.27299 11.98836 10561 ft 306 kts 261°
2026-05-01 11:44 48.26990 11.95699 10341 ft 301 kts 263°
2026-05-01 11:44 48.26729 11.92595 10189 ft 299 kts 264°
2026-05-01 11:44 48.26481 11.89497 10082 ft 299 kts 264°
2026-05-01 11:45 48.26235 11.86392 9988 ft 299 kts 264°
2026-05-01 11:45 48.25991 11.83297 9899 ft 298 kts 264°
2026-05-01 11:45 48.25752 11.80204 9787 ft 298 kts 264°
2026-05-01 11:45 48.25516 11.77135 9698 ft 297 kts 264°
2026-05-01 11:46 48.25278 11.74052 9600 ft 297 kts 264°
2026-05-01 11:46 48.25038 11.70972 9497 ft 297 kts 263°
2026-05-01 11:46 48.24799 11.67902 9403 ft 296 kts 263°
2026-05-01 11:46 48.24558 11.64832 9316 ft 295 kts 263°
2026-05-01 11:47 48.24319 11.61773 9210 ft 295 kts 263°
2026-05-01 11:47 48.24080 11.58722 9111 ft 294 kts 263°
2026-05-01 11:47 48.23840 11.55674 9020 ft 295 kts 263°
2026-05-01 11:47 48.23598 11.52621 8922 ft 295 kts 263°
2026-05-01 11:48 48.23357 11.49573 8808 ft 294 kts 263°
2026-05-01 11:48 48.23114 11.46527 8715 ft 294 kts 263°
2026-05-01 11:48 48.22868 11.43489 8616 ft 294 kts 262°
2026-05-01 11:48 48.22624 11.40499 8526 ft 293 kts 262°
2026-05-01 11:49 48.22380 11.37475 8429 ft 292 kts 263°
2026-05-01 11:49 48.22138 11.34448 8332 ft 292 kts 262°
2026-05-01 11:49 48.21894 11.31429 8245 ft 292 kts 263°
2026-05-01 11:49 48.21648 11.28419 8146 ft 291 kts 262°
2026-05-01 11:50 48.21401 11.25415 8053 ft 291 kts 262°
2026-05-01 11:50 48.21152 11.22410 7948 ft 290 kts 262°
2026-05-01 11:50 48.20946 11.19398 7838 ft 290 kts 268°
2026-05-01 11:50 48.21294 11.16442 7780 ft 289 kts 295°
2026-05-01 11:51 48.22519 11.14149 7685 ft 282 kts 327°
2026-05-01 11:51 48.24288 11.13057 7581 ft 275 kts 355°
2026-05-01 11:51 48.26156 11.13283 7503 ft 268 kts 22°
2026-05-01 11:51 48.27704 11.14720 7459 ft 262 kts 47°
2026-05-01 11:52 48.28684 11.16963 7372 ft 256 kts 69°
2026-05-01 11:52 48.29309 11.19461 7272 ft 255 kts 72°
2026-05-01 11:52 48.29895 11.21986 7188 ft 256 kts 72°
2026-05-01 11:52 48.30492 11.24493 7099 ft 255 kts 72°
2026-05-01 11:53 48.31093 11.26999 7016 ft 255 kts 72°
2026-05-01 11:53 48.31700 11.29502 6932 ft 254 kts 72°
2026-05-01 11:53 48.32307 11.32001 6855 ft 255 kts 72°
2026-05-01 11:53 48.32869 11.34483 6753 ft 246 kts 77°
2026-05-01 11:54 48.33176 11.36947 6710 ft 235 kts 83°
2026-05-01 11:54 48.33382 11.39353 6543 ft 231 kts 84°
2026-05-01 11:54 48.33572 11.41733 6243 ft 229 kts 85°
2026-05-01 11:54 48.33757 11.44130 5913 ft 234 kts 85°
2026-05-01 11:55 48.33949 11.46579 5549 ft 238 kts 82°
2026-05-01 11:55 48.34155 11.49064 5187 ft 239 kts 85°
2026-05-01 11:55 48.34329 11.51559 4851 ft 243 kts 84°
2026-05-01 11:55 48.34686 11.54042 4505 ft 246 kts 68°
2026-05-01 11:56 48.35747 11.56062 4228 ft 253 kts 40°
2026-05-01 11:56 48.37380 11.57120 3949 ft 262 kts 13°
2026-05-01 11:56 48.39200 11.57062 4209 ft 260 kts 356°
2026-05-01 11:56 48.40929 11.56634 4805 ft 238 kts 353°
2026-05-01 11:57 48.42377 11.55738 5095 ft 218 kts 324°
2026-05-01 11:57 48.43026 11.54630 5243 ft 212 kts 300°
2026-05-01 11:57 48.43710 11.51845 5333 ft 216 kts 284°
2026-05-01 11:57 48.44026 11.49613 5091 ft 219 kts 272°
2026-05-01 11:58 48.43858 11.47389 5033 ft 212 kts 254°
2026-05-01 11:58 48.43171 11.45487 5078 ft 205 kts 221°
2026-05-01 11:58 48.40692 11.44740 5083 ft 187 kts 156°
2026-05-01 11:59 48.39439 11.45257 5029 ft 188 kts 167°
2026-05-01 11:59 48.38121 11.45414 4961 ft 189 kts 168°
2026-05-01 11:59 48.36909 11.46040 5067 ft 179 kts 149°
2026-05-01 12:00 48.34828 11.47664 5093 ft 162 kts 144°
2026-05-01 12:00 48.33874 11.48590 5057 ft 161 kts 143°
2026-05-01 12:00 48.33534 11.51535 4934 ft 159 kts 64°
2026-05-01 12:01 48.33949 11.53082 4690 ft 161 kts 74°
2026-05-01 12:01 48.34284 11.54653 4527 ft 152 kts 75°
2026-05-01 12:01 48.34556 11.56205 4247 ft 154 kts 82°
2026-05-01 12:01 48.34748 11.57753 4023 ft 149 kts 82°
2026-05-01 12:02 48.34892 11.59228 3827 ft 142 kts 83°
2026-05-01 12:02 48.35027 11.60674 3612 ft 139 kts 82°
2026-05-01 12:02 48.35141 11.62078 3430 ft 139 kts 84°
2026-05-01 12:02 48.35249 11.63519 3309 ft 142 kts 83°
2026-05-01 12:03 48.35364 11.64961 3098 ft 134 kts 85°
2026-05-01 12:03 48.35472 11.66351 2941 ft 133 kts 83°
2026-05-01 12:03 48.35578 11.67689 2741 ft 125 kts 83°
2026-05-01 12:03 48.35643 11.68538 2639 ft 124 kts 84°
2026-05-01 12:04 48.35778 11.70318 2411 ft 131 kts 84°
2026-05-01 12:04 48.35880 11.71651 2231 ft 126 kts 81°
2026-05-01 12:04 48.35999 11.72961 2000 ft 127 kts 83°
2026-05-01 12:04 48.36105 11.74271 1871 ft 125 kts 85°
2026-05-01 12:05 48.36206 11.75626 1693 ft 132 kts 82°
2026-05-01 12:05 48.36385 11.78176 1468 ft 72 kts 83°
2026-05-01 12:05 48.36408 11.78665 1469 ft 35 kts 99°
2026-05-01 12:06 48.36369 11.78875 1470 ft 0 kts 112°
2026-05-01 12:06 48.36368 11.78878 1470 ft 0 kts 112°
2026-05-01 12:07 48.36327 11.79022 1469 ft 24 kts 113°
2026-05-01 12:07 48.36280 11.79167 1467 ft 0 kts 117°
2026-05-01 12:07 48.36279 11.79171 1464 ft 5 kts 117°
2026-05-01 12:08 48.36188 11.79298 1463 ft 18 kts 169°
2026-05-01 12:08 48.36118 11.79378 1470 ft 10 kts 117°
2026-05-01 12:08 48.36076 11.79471 1467 ft 10 kts 144°
2026-05-01 12:08 48.36012 11.79496 1465 ft 10 kts 171°
2026-05-01 12:09 48.35933 11.79513 1469 ft 11 kts 175°
2026-05-01 12:09 48.35922 11.79514 1468 ft 0 kts 175°
2026-05-01 12:11 48.35850 11.79523 1474 ft 25 kts 175°
2026-05-01 12:11 48.35723 11.79489 1469 ft 17 kts 221°
2026-05-01 12:12 48.35636 11.79427 1474 ft 13 kts 184°
2026-05-01 12:12 48.35573 11.79393 1466 ft 8 kts 230°
2026-05-01 12:12 48.35550 11.79313 1469 ft 1 kts 255°